{"data":{"norad_id":61882,"epoch":"2026-09-21T20:15:06.188832Z","epoch_age_seconds":72320,"freshness":"FRESH","line1":"1 61882U 24204J   26264.84382163 -.00003918  00000+0 -27482-4 0  9991","line2":"2 61882  53.1586 109.2363 0000690  77.4297 282.6798 15.69723187107728","mean_motion":15.69723187,"eccentricity":6.9e-5,"inclination_deg":53.1586,"raan_deg":109.2363,"arg_perigee_deg":77.4297,"mean_anomaly_deg":282.6798,"bstar":-2.7482e-5,"rev_number":10772,"period_min":91.735919551018,"perigee_km":359.22410454267,"apogee_km":360.15392453268,"semimajor_km":6737.8260145377,"source":"CELESTRAK","updated_at":"2026-09-22T09:00:49.446031Z"}}